,,,PA_Meas_PMT16A,,PR_Meas_QMR101_102,,RH_Meas_QMH101,,SR_Meas_QMS101,,TA_Meas_QMH101,,GenWind,,GenWind,
date,time,status,PA,status,PR,status,RH,status,SR,status,TA,status,DirAvg,status,SpdAvg,
2009-04-22, 00:00:04,VALID,1009.9,VALID,0,VALID,4,VALID,0,VALID,23.3805,VALID,54,VALID,0.609766,
2009-04-22, 00:01:04,VALID,1009.88,VALID,0,VALID,4,VALID,0,VALID,23.3805,VALID,56,VALID,0.270703,
2009-04-22, 00:02:04,VALID,1009.9,VALID,0,VALID,4,VALID,0,VALID,23.3805,VALID,84,VALID,0.316797,
2009-04-22, 00:03:04,VALID,1009.88,VALID,0,VALID,4,VALID,0.105969,VALID,23.4,VALID,106,VALID,0.419141,
2009-04-22, 00:04:04,VALID,1009.86,VALID,0,VALID,4,VALID,0,VALID,23.4407,VALID,106,VALID,0.502734,
2009-04-22, 00:05:04,VALID,1009.85,VALID,0,VALID,4,VALID,0,VALID,23.4,VALID,98,VALID,0.605078,
2009-04-22, 00:06:04,VALID,1009.85,VALID,0,VALID,4,VALID,0.105969,VALID,23.3805,VALID,98,VALID,0.480859,
2009-04-22, 00:07:04,VALID,1009.86,VALID,0,VALID,4,VALID,0,VALID,23.4194,VALID,98,VALID,0.501172,
2009-04-22, 00:08:04,VALID,1009.85,VALID,0,VALID,4,VALID,0.105969,VALID,23.4194,VALID,98,VALID,0.295703,
2009-04-22, 00:09:04,VALID,1009.84,VALID,0,VALID,4,VALID,0,VALID,23.4602,VALID,104,VALID,0.287109,
2009-04-22, 00:10:04,VALID,1009.85,VALID,0,VALID,4,VALID,0,VALID,23.4602,VALID,93,VALID,0.519531,
2009-04-22, 00:11:04,VALID,1009.82,VALID,0,VALID,4,VALID,0,VALID,23.4194,VALID,86,VALID,0.200781,
2009-04-22, 00:12:04,VALID,1009.83,VALID,0,VALID,4,VALID,0,VALID,23.4389,VALID,86,VALID,0.308203,
2009-04-22, 00:13:04,VALID,1009.82,VALID,0,VALID,4,VALID,0.105969,VALID,23.4389,VALID,128,VALID,0.541016,
2009-04-22, 00:14:04,VALID,1009.82,VALID,0,VALID,4,VALID,0,VALID,23.4389,VALID,152,VALID,0.587891,
2009-04-22, 00:15:04,VALID,1009.78,VALID,0,VALID,4,VALID,0,VALID,23.4407,VALID,154,VALID,0.665625,
2009-04-22, 00:16:04,VALID,1009.77,VALID,0,VALID,4,VALID,0,VALID,23.4194,VALID,148,VALID,0.670703,
2009-04-22, 00:17:04,VALID,1009.75,VALID,0,VALID,4,VALID,0,VALID,23.4,VALID,151,VALID,0.813672,
2009-04-22, 00:18:04,VALID,1009.74,VALID,0,VALID,4,VALID,0,VALID,23.4212,VALID,150,VALID,0.654297,
2009-04-22, 00:19:04,VALID,1009.76,VALID,0,VALID,4,VALID,0,VALID,23.4017,VALID,140,VALID,0.521875,
2009-04-22, 00:20:04,VALID,1009.73,VALID,0,VALID,4,VALID,0,VALID,23.4,VALID,151,VALID,0.566406,
2009-04-22, 00:21:04,VALID,1009.76,VALID,0,VALID,4,VALID,0,VALID,23.3805,VALID,137,VALID,0.795703,
2009-04-22, 00:22:04,VALID,1009.73,VALID,0,VALID,4,VALID,0.105969,VALID,23.3805,VALID,142,VALID,0.530078,
2009-04-22, 00:23:04,VALID,1009.72,VALID,0,VALID,4,VALID,0,VALID,23.3805,VALID,137,VALID,0.384375,
2009-04-22, 00:24:04,VALID,1009.74,VALID,0,VALID,4,VALID,0,VALID,23.4017,VALID,128,VALID,0.212109,
2009-04-22, 00:25:04,VALID,1009.75,VALID,0,VALID,4,VALID,0,VALID,23.3805,VALID,128,VALID,0.455078,
2009-04-22, 00:26:04,VALID,1009.72,VALID,0,VALID,4,VALID,0.105969,VALID,23.3805,VALID,128,VALID,0.192578,
2009-04-22, 00:27:04,VALID,1009.74,VALID,0,VALID,4,VALID,0,VALID,23.4212,VALID,123,VALID,0.699219,
2009-04-22, 00:28:04,VALID,1009.74,VALID,0,VALID,4,VALID,0,VALID,23.4212,VALID,124,VALID,0.399609,
2009-04-22, 00:29:04,VALID,1009.71,VALID,0,VALID,4,VALID,0,VALID,23.4212,VALID,124,VALID,0.497656,
2009-04-22, 00:30:04,VALID,1009.7,VALID,0,VALID,4,VALID,0,VALID,23.3805,VALID,138,VALID,1.00703,
2009-04-22, 00:31:04,VALID,1009.73,VALID,0,VALID,4,VALID,0,VALID,23.4,VALID,145,VALID,0.789844,
2009-04-22, 00:32:04,VALID,1009.73,VALID,0,VALID,4,VALID,0,VALID,23.4,VALID,141,VALID,0.505078,
2009-04-22, 00:33:04,VALID,1009.7,VALID,0,VALID,4,VALID,0,VALID,23.4017,VALID,140,VALID,0.583984,
2009-04-22, 00:34:04,VALID,1009.69,VALID,0,VALID,4,VALID,0,VALID,23.4017,VALID,119,VALID,0.672266,
2009-04-22, 00:35:04,VALID,1009.69,VALID,0,VALID,4,VALID,0,VALID,23.3805,VALID,122,VALID,0.733203,
2009-04-22, 00:36:04,VALID,1009.67,VALID,0,VALID,4,VALID,0.105969,VALID,23.3805,VALID,128,VALID,0.398047,
2009-04-22, 00:37:04,VALID,1009.66,VALID,0,VALID,4,VALID,0.105969,VALID,23.3805,VALID,129,VALID,0.421094,
2009-04-22, 00:38:04,VALID,1009.68,VALID,0,VALID,4,VALID,0.105969,VALID,23.3805,VALID,129,VALID,0.713281,
2009-04-22, 00:39:04,VALID,1009.68,VALID,0,VALID,4,VALID,0,VALID,23.3805,VALID,130,VALID,0.733594,
2009-04-22, 00:40:04,VALID,1009.65,VALID,0,VALID,4,VALID,0.105969,VALID,23.3805,VALID,130,VALID,0.671875,
2009-04-22, 00:41:04,VALID,1009.66,VALID,0,VALID,4,VALID,0.105969,VALID,23.3805,VALID,135,VALID,0.8125,
2009-04-22, 00:42:04,VALID,1009.65,VALID,0,VALID,4,VALID,0,VALID,23.361,VALID,137,VALID,0.929297,
2009-04-22, 00:43:04,VALID,1009.61,VALID,0,VALID,4,VALID,0,VALID,23.361,VALID,130,VALID,0.954297,
2009-04-22, 00:44:04,VALID,1009.59,VALID,0,VALID,4,VALID,0,VALID,23.3823,VALID,146,VALID,0.537109,
2009-04-22, 00:45:04,VALID,1009.57,VALID,0,VALID,4,VALID,0,VALID,23.3628,VALID,146,VALID,0.105078,
2009-04-22, 00:46:04,VALID,1009.57,VALID,0,VALID,4,VALID,0,VALID,23.3628,VALID,121,VALID,0.447266,
2009-04-22, 00:47:04,VALID,1009.55,VALID,0,VALID,4,VALID,0,VALID,23.384,VALID,115,VALID,0.748438,
2009-04-22, 00:48:04,VALID,1009.57,VALID,0,VALID,4,VALID,0,VALID,23.4035,VALID,116,VALID,0.475,
2009-04-22, 00:49:04,VALID,1009.51,VALID,0,VALID,4,VALID,0,VALID,23.3823,VALID,116,VALID,0.558594,
2009-04-22, 00:50:04,VALID,1009.51,VALID,0,VALID,4,VALID,0,VALID,23.4035,VALID,117,VALID,0.343359,
2009-04-22, 00:51:04,VALID,1009.49,VALID,0,VALID,4,VALID,0,VALID,23.4017,VALID,112,VALID,0.542188,
2009-04-22, 00:52:04,VALID,1009.46,VALID,0,VALID,4,VALID,0,VALID,23.3823,VALID,138,VALID,0.7375,
2009-04-22, 00:53:04,VALID,1009.45,VALID,0,VALID,4,VALID,0,VALID,23.3823,VALID,130,VALID,0.864844,
2009-04-22, 00:54:04,VALID,1009.44,VALID,0,VALID,4,VALID,0,VALID,23.3805,VALID,128,VALID,0.407422,
2009-04-22, 00:55:04,VALID,1009.41,VALID,0,VALID,4,VALID,0,VALID,23.3823,VALID,106,VALID,0.659375,
2009-04-22, 00:56:04,VALID,1009.38,VALID,0,VALID,4,VALID,0,VALID,23.4017,VALID,133,VALID,0.470313,
2009-04-22, 00:57:04,VALID,1009.36,VALID,0,VALID,4,VALID,0,VALID,23.3823,VALID,133,VALID,0.963672,
2009-04-22, 00:58:04,VALID,1009.34,VALID,0,VALID,4,VALID,0,VALID,23.3628,VALID,131,VALID,0.533984,
2009-04-22, 00:59:04,VALID,1009.32,VALID,0,VALID,4,VALID,0,VALID,23.384,VALID,139,VALID,0.278516,
2009-04-22, 01:00:04,VALID,1009.34,VALID,0,VALID,4,VALID,0,VALID,23.3628,VALID,137,VALID,0.765625,
2009-04-22, 01:01:04,VALID,1009.31,VALID,0,VALID,4,VALID,0,VALID,23.3823,VALID,125,VALID,0.501953,
2009-04-22, 01:02:04,VALID,1009.31,VALID,0,VALID,4,VALID,0,VALID,23.3823,VALID,125,VALID,0.243359,
2009-04-22, 01:03:04,VALID,1009.31,VALID,0,VALID,4,VALID,0,VALID,23.3823,VALID,125,VALID,0.107813,
2009-04-22, 01:04:04,VALID,1009.32,VALID,0,VALID,4,VALID,0,VALID,23.3823,VALID,125,VALID,0.605469,
2009-04-22, 01:05:04,VALID,1009.29,VALID,0,VALID,4,VALID,0,VALID,23.4017,VALID,118,VALID,0.331641,
2009-04-22, 01:06:04,VALID,1009.31,VALID,0,VALID,4,VALID,0,VALID,23.4425,VALID,117,VALID,0.554688,
2009-04-22, 01:07:04,VALID,1009.28,VALID,0,VALID,4,VALID,0,VALID,23.4017,VALID,112,VALID,0.66875,
2009-04-22, 01:08:04,VALID,1009.26,VALID,0,VALID,4,VALID,0,VALID,23.4212,VALID,114,VALID,0.5125,
2009-04-22, 01:09:04,VALID,1009.23,VALID,0,VALID,4,VALID,0,VALID,23.4407,VALID,80,VALID,0.612109,
2009-04-22, 01:10:04,VALID,1009.23,VALID,0,VALID,4,VALID,0,VALID,23.4212,VALID,84,VALID,0.739844,
2009-04-22, 01:11:04,VALID,1009.23,VALID,0,VALID,4,VALID,0,VALID,23.4407,VALID,101,VALID,0.801172,
2009-04-22, 01:12:04,VALID,1009.23,VALID,0,VALID,4,VALID,0,VALID,23.4407,VALID,103,VALID,0.345313,
2009-04-22, 01:13:04,VALID,1009.21,VALID,0,VALID,4,VALID,0,VALID,23.4407,VALID,102,VALID,0.198437,
2009-04-22, 01:14:04,VALID,1009.18,VALID,0,VALID,4,VALID,0.105969,VALID,23.4389,VALID,110,VALID,0.591016,
2009-04-22, 01:15:04,VALID,1009.19,VALID,0,VALID,4,VALID,0.105969,VALID,23.4584,VALID,103,VALID,0.2125,
2009-04-22, 01:16:04,VALID,1009.17,VALID,0,VALID,4,VALID,0.105969,VALID,23.4584,VALID,84,VALID,0.285937,
2009-04-22, 01:17:04,VALID,1009.13,VALID,0,VALID,4,VALID,0,VALID,23.4389,VALID,64,VALID,0.417578,
2009-04-22, 01:18:04,VALID,1009.12,VALID,0,VALID,4,VALID,0.105969,VALID,23.4194,VALID,45,VALID,0.192578,
2009-04-22, 01:19:04,VALID,1009.12,VALID,0,VALID,4,VALID,0.105969,VALID,23.4,VALID,46,VALID,0.309375,
2009-04-22, 01:20:04,VALID,1009.07,VALID,0,VALID,4,VALID,0.105969,VALID,23.3787,VALID,53,VALID,0.180078,
2009-04-22, 01:21:04,VALID,1009.08,VALID,0,VALID,4,VALID,0.105969,VALID,23.3787,VALID,58,VALID,0.399219,
2009-04-22, 01:22:04,VALID,1009.04,VALID,0,VALID,4,VALID,0.105969,VALID,23.3592,VALID,72,VALID,0.524609,
2009-04-22, 01:23:04,VALID,1009.03,VALID,0,VALID,4,VALID,0.105969,VALID,23.3805,VALID,89,VALID,0.392188,
2009-04-22, 01:24:04,VALID,1009.03,VALID,0,VALID,4,VALID,0.105969,VALID,23.361,VALID,67,VALID,0.401953,
2009-04-22, 01:25:04,VALID,1008.99,VALID,0,VALID,4,VALID,0.105969,VALID,23.3805,VALID,100,VALID,0.511328,
2009-04-22, 01:26:04,VALID,1008.99,VALID,0,VALID,4,VALID,0.105969,VALID,23.3805,VALID,85,VALID,0.419531,
2009-04-22, 01:27:04,VALID,1008.96,VALID,0,VALID,4,VALID,0,VALID,23.3805,VALID,85,VALID,0.670313,
2009-04-22, 01:28:04,VALID,1008.97,VALID,0,VALID,4,VALID,0.105969,VALID,23.3805,VALID,85,VALID,0.742188,
2009-04-22, 01:29:04,VALID,1008.98,VALID,0,VALID,4,VALID,0,VALID,23.3805,VALID,83,VALID,0.419531,
2009-04-22, 01:30:04,VALID,1008.96,VALID,0,VALID,4,VALID,0,VALID,23.4017,VALID,79,VALID,0.492578,
2009-04-22, 01:31:04,VALID,1008.96,VALID,0,VALID,4,VALID,0,VALID,23.3823,VALID,90,VALID,0.596094,
2009-04-22, 01:32:04,VALID,1008.96,VALID,0,VALID,4,VALID,0,VALID,23.4017,VALID,85,VALID,0.322266,
2009-04-22, 01:33:04,VALID,1008.95,VALID,0,VALID,4,VALID,0,VALID,23.4017,VALID,61,VALID,0.489844,
2009-04-22, 01:34:04,VALID,1008.93,VALID,0,VALID,4,VALID,0,VALID,23.3805,VALID,60,VALID,0.601172,
2009-04-22, 01:35:04,VALID,1008.92,VALID,0,VALID,4,VALID,0,VALID,23.3823,VALID,65,VALID,0.881641,
2009-04-22, 01:36:04,VALID,1008.93,VALID,0,VALID,4,VALID,0,VALID,23.3805,VALID,71,VALID,0.567578,
2009-04-22, 01:37:04,VALID,1008.91,VALID,0,VALID,4,VALID,0,VALID,23.4017,VALID,49,VALID,0.558594,
2009-04-22, 01:38:04,VALID,1008.89,VALID,0,VALID,4,VALID,0,VALID,23.4017,VALID,71,VALID,0.414453,
2009-04-22, 01:39:04,VALID,1008.89,VALID,0,VALID,4,VALID,0,VALID,23.3823,VALID,72,VALID,0.610937,
2009-04-22, 01:40:04,VALID,1008.88,VALID,0,VALID,4,VALID,0,VALID,23.3823,VALID,66,VALID,0.642969,
2009-04-22, 01:41:04,VALID,1008.84,VALID,0,VALID,4,VALID,0,VALID,23.4017,VALID,79,VALID,0.674219,
2009-04-22, 01:42:04,VALID,1008.85,VALID,0,VALID,4,VALID,0,VALID,23.4017,VALID,69,VALID,0.622656,
2009-04-22, 01:43:04,VALID,1008.82,VALID,0,VALID,4,VALID,0,VALID,23.4017,VALID,65,VALID,0.685547,
2009-04-22, 01:44:04,VALID,1008.81,VALID,0,VALID,4,VALID,0.105969,VALID,23.3805,VALID,81,VALID,0.651563,
2009-04-22, 01:45:04,VALID,1008.78,VALID,0,VALID,4,VALID,0.105969,VALID,23.3592,VALID,89,VALID,0.710938,
2009-04-22, 01:46:04,VALID,1008.74,VALID,0,VALID,4,VALID,0.105969,VALID,23.361,VALID,94,VALID,0.667969,
2009-04-22, 01:47:04,VALID,1008.74,VALID,0,VALID,4,VALID,0.105969,VALID,23.361,VALID,88,VALID,0.820313,
2009-04-22, 01:48:04,VALID,1008.73,VALID,0,VALID,4,VALID,0.105969,VALID,23.3203,VALID,79,VALID,0.588281,
2009-04-22, 01:49:04,VALID,1008.72,VALID,0,VALID,4,VALID,0,VALID,23.3415,VALID,97,VALID,0.66875,
2009-04-22, 01:50:04,VALID,1008.71,VALID,0,VALID,4,VALID,0.105969,VALID,23.3415,VALID,97,VALID,0.466406,
2009-04-22, 01:51:04,VALID,1008.69,VALID,0,VALID,4,VALID,0.105969,VALID,23.361,VALID,96,VALID,0.63125,
2009-04-22, 01:52:04,VALID,1008.7,VALID,0,VALID,4,VALID,0.105969,VALID,23.3398,VALID,103,VALID,0.898828,
2009-04-22, 01:53:04,VALID,1008.7,VALID,0,VALID,4,VALID,0.105969,VALID,23.3415,VALID,98,VALID,0.494141,
2009-04-22, 01:54:04,VALID,1008.68,VALID,0,VALID,4,VALID,0.105969,VALID,23.3398,VALID,93,VALID,0.507422,
2009-04-22, 01:55:04,VALID,1008.67,VALID,0,VALID,4,VALID,0.105969,VALID,23.361,VALID,70,VALID,0.532422,
2009-04-22, 01:56:04,VALID,1008.67,VALID,0,VALID,4,VALID,0,VALID,23.3415,VALID,74,VALID,0.661719,
2009-04-22, 01:57:04,VALID,1008.66,VALID,0,VALID,4,VALID,0,VALID,23.3415,VALID,110,VALID,0.552734,
2009-04-22, 01:58:04,VALID,1008.62,VALID,0,VALID,4,VALID,0.105969,VALID,23.322,VALID,74,VALID,0.656641,
2009-04-22, 01:59:04,VALID,1008.62,VALID,0,VALID,4,VALID,0,VALID,23.3026,VALID,88,VALID,0.671875,
2009-04-22, 02:00:04,VALID,1008.6,VALID,0,VALID,4,VALID,0,VALID,23.3433,VALID,96,VALID,0.666406,
2009-04-22, 02:01:04,VALID,1008.6,VALID,0,VALID,4,VALID,0,VALID,23.3238,VALID,107,VALID,0.435937,
2009-04-22, 02:02:04,VALID,1008.62,VALID,0,VALID,4,VALID,0,VALID,23.3043,VALID,136,VALID,0.618359,
2009-04-22, 02:03:04,VALID,1008.62,VALID,0,VALID,4,VALID,0,VALID,23.3238,VALID,140,VALID,0.621094,
2009-04-22, 02:04:04,VALID,1008.61,VALID,0,VALID,4,VALID,0,VALID,23.3026,VALID,122,VALID,0.625781,
2009-04-22, 02:05:04,VALID,1008.61,VALID,0,VALID,4,VALID,0,VALID,23.3043,VALID,113,VALID,1.12109,
2009-04-22, 02:06:04,VALID,1008.59,VALID,0,VALID,4,VALID,0,VALID,23.3043,VALID,117,VALID,0.957422,
2009-04-22, 02:07:04,VALID,1008.61,VALID,0,VALID,4,VALID,0,VALID,23.3043,VALID,121,VALID,0.872656,
2009-04-22, 02:08:04,VALID,1008.6,VALID,0,VALID,4,VALID,0,VALID,23.2848,VALID,113,VALID,0.96875,
2009-04-22, 02:09:04,VALID,1008.59,VALID,0,VALID,4,VALID,0,VALID,23.2848,VALID,108,VALID,1.04492,
2009-04-22, 02:10:04,VALID,1008.58,VALID,0,VALID,4,VALID,0,VALID,23.3043,VALID,121,VALID,0.639844,
2009-04-22, 02:11:04,VALID,1008.61,VALID,0,VALID,4,VALID,0,VALID,23.2636,VALID,115,VALID,0.586328,
2009-04-22, 02:12:04,VALID,1008.57,VALID,0,VALID,4,VALID,0,VALID,23.2441,VALID,114,VALID,0.881641,
2009-04-22, 02:13:04,VALID,1008.57,VALID,0,VALID,4,VALID,0,VALID,23.2654,VALID,114,VALID,0.653516,
2009-04-22, 02:14:04,VALID,1008.55,VALID,0,VALID,4,VALID,0,VALID,23.2654,VALID,114,VALID,0.294531,
2009-04-22, 02:15:04,VALID,1008.52,VALID,0,VALID,4,VALID,0,VALID,23.2671,VALID,113,VALID,0.50625,
2009-04-22, 02:16:04,VALID,1008.51,VALID,0,VALID,4,VALID,0,VALID,23.2264,VALID,110,VALID,0.525781,
2009-04-22, 02:17:04,VALID,1008.52,VALID,0,VALID,4,VALID,0,VALID,23.2264,VALID,105,VALID,0.317969,
2009-04-22, 02:18:04,VALID,1008.5,VALID,0,VALID,4,VALID,0,VALID,23.2282,VALID,79,VALID,0.593359,
2009-04-22, 02:19:04,VALID,1008.5,VALID,0,VALID,4,VALID,0,VALID,23.2069,VALID,78,VALID,0.584766,
2009-04-22, 02:20:04,VALID,1008.5,VALID,0,VALID,4,VALID,0,VALID,23.1857,VALID,79,VALID,0.840234,
2009-04-22, 02:21:04,VALID,1008.45,VALID,0,VALID,4,VALID,0,VALID,23.1874,VALID,68,VALID,0.722266,
2009-04-22, 02:22:04,VALID,1008.47,VALID,0,VALID,4,VALID,0,VALID,23.1679,VALID,71,VALID,0.659766,
2009-04-22, 02:23:04,VALID,1008.45,VALID,0,VALID,4,VALID,0,VALID,23.1679,VALID,82,VALID,0.562891,
2009-04-22, 02:24:04,VALID,1008.43,VALID,0,VALID,4,VALID,0,VALID,23.1485,VALID,84,VALID,0.367969,
2009-04-22, 02:25:04,VALID,1008.45,VALID,0,VALID,4,VALID,0,VALID,23.1485,VALID,59,VALID,0.587109,
2009-04-22, 02:26:04,VALID,1008.43,VALID,0,VALID,4,VALID,0,VALID,23.129,VALID,75,VALID,0.568359,
2009-04-22, 02:27:04,VALID,1008.42,VALID,0,VALID,4,VALID,0,VALID,23.1095,VALID,83,VALID,0.400781,
2009-04-22, 02:28:04,VALID,1008.41,VALID,0,VALID,4,VALID,0,VALID,23.1095,VALID,80,VALID,0.358984,
2009-04-22, 02:29:04,VALID,1008.41,VALID,0,VALID,4,VALID,0,VALID,23.1095,VALID,81,VALID,0.492969,
2009-04-22, 02:30:04,VALID,1008.39,VALID,0,VALID,4,VALID,0,VALID,23.1112,VALID,82,VALID,0.7625,
2009-04-22, 02:31:04,VALID,1008.44,VALID,0,VALID,4,VALID,0,VALID,23.09,VALID,91,VALID,0.74375,
2009-04-22, 02:32:04,VALID,1008.41,VALID,0,VALID,4,VALID,0,VALID,23.0705,VALID,91,VALID,0.292969,
2009-04-22, 02:33:04,VALID,1008.41,VALID,0,VALID,4,VALID,0,VALID,23.09,VALID,90,VALID,0.255859,
2009-04-22, 02:34:04,VALID,1008.43,VALID,0,VALID,4,VALID,0,VALID,23.0705,VALID,73,VALID,0.301562,
2009-04-22, 02:35:04,VALID,1008.41,VALID,0,VALID,4,VALID,0,VALID,23.0511,VALID,88,VALID,0.499609,
2009-04-22, 02:36:04,VALID,1008.42,VALID,0,VALID,4,VALID,0,VALID,23.0316,VALID,88,VALID,0.542188,
2009-04-22, 02:37:04,VALID,1008.43,VALID,0,VALID,4,VALID,0,VALID,23.0511,VALID,88,VALID,0.366406,
2009-04-22, 02:38:04,VALID,1008.44,VALID,0,VALID,4,VALID,0,VALID,23.0511,VALID,88,VALID,0.119531,
2009-04-22, 02:39:04,VALID,1008.46,VALID,0,VALID,4,VALID,0,VALID,23.0511,VALID,88,VALID,0.158984,
2009-04-22, 02:40:04,VALID,1008.44,VALID,0,VALID,4,VALID,0,VALID,23.0316,VALID,72,VALID,0.510938,
2009-04-22, 02:41:04,VALID,1008.46,VALID,0,VALID,4,VALID,0,VALID,23.0316,VALID,70,VALID,0.503906,
2009-04-22, 02:42:04,VALID,1008.49,VALID,0,VALID,4,VALID,0,VALID,23.0121,VALID,69,VALID,0.505469,
2009-04-22, 02:43:04,VALID,1008.5,VALID,0,VALID,4,VALID,0,VALID,23.0333,VALID,72,VALID,0.397656,
2009-04-22, 02:44:04,VALID,1008.5,VALID,0,VALID,4,VALID,0,VALID,22.9909,VALID,71,VALID,0.544922,
2009-04-22, 02:45:04,VALID,1008.48,VALID,0,VALID,4,VALID,0,VALID,22.9909,VALID,71,VALID,0.378516,
2009-04-22, 02:46:04,VALID,1008.47,VALID,0,VALID,4,VALID,0,VALID,22.9909,VALID,64,VALID,0.416016,
2009-04-22, 02:47:04,VALID,1008.48,VALID,0,VALID,4,VALID,0,VALID,22.9909,VALID,70,VALID,0.394531,
2009-04-22, 02:48:04,VALID,1008.47,VALID,0,VALID,4,VALID,0,VALID,22.9909,VALID,70,VALID,0.219141,
2009-04-22, 02:49:04,VALID,1008.49,VALID,0,VALID,4,VALID,0,VALID,22.9714,VALID,70,VALID,0,
2009-04-22, 02:50:04,VALID,1008.52,VALID,0,VALID,4,VALID,0,VALID,22.9519,VALID,70,VALID,0.311719,
2009-04-22, 02:51:04,VALID,1008.53,VALID,0,VALID,4,VALID,0,VALID,22.9519,VALID,64,VALID,0.308203,
2009-04-22, 02:52:04,VALID,1008.56,VALID,0,VALID,4,VALID,0,VALID,22.9324,VALID,64,VALID,0.413281,
2009-04-22, 02:53:04,VALID,1008.57,VALID,0,VALID,4,VALID,0,VALID,22.9324,VALID,64,VALID,0.31875,
2009-04-22, 02:54:04,VALID,1008.59,VALID,0,VALID,4,VALID,0,VALID,22.9324,VALID,64,VALID,0.225781,
2009-04-22, 02:55:04,VALID,1008.59,VALID,0,VALID,4,VALID,0,VALID,22.9129,VALID,64,VALID,0.18125,
2009-04-22, 02:56:04,VALID,1008.6,VALID,0,VALID,4,VALID,0,VALID,22.9129,VALID,64,VALID,0.0855469,
2009-04-22, 02:57:04,VALID,1008.59,VALID,0,VALID,4,VALID,0,VALID,22.8935,VALID,64,VALID,0,
2009-04-22, 02:58:04,VALID,1008.61,VALID,0,VALID,4,VALID,0,VALID,22.8935,VALID,82,VALID,0.250781,
2009-04-22, 02:59:04,VALID,1008.6,VALID,0,VALID,4,VALID,0,VALID,22.8757,VALID,82,VALID,0,
2009-04-22, 03:00:04,VALID,1008.63,VALID,0,VALID,4,VALID,0,VALID,22.8562,VALID,78,VALID,0.167969,
2009-04-22, 03:01:04,VALID,1008.61,VALID,0,VALID,4,VALID,0,VALID,22.8562,VALID,78,VALID,0,
2009-04-22, 03:02:04,VALID,1008.63,VALID,0,VALID,4,VALID,0,VALID,22.8562,VALID,75,VALID,0.371484,
2009-04-22, 03:03:04,VALID,1008.61,VALID,0,VALID,4,VALID,0,VALID,22.8368,VALID,73,VALID,0.33125,
2009-04-22, 03:04:04,VALID,1008.6,VALID,0,VALID,4,VALID,0,VALID,22.8173,VALID,70,VALID,0.382813,
2009-04-22, 03:05:04,VALID,1008.61,VALID,0,VALID,4,VALID,0,VALID,22.8173,VALID,69,VALID,0.182031,
2009-04-22, 03:06:04,VALID,1008.59,VALID,0,VALID,4,VALID,0,VALID,22.8173,VALID,69,VALID,0.000390625,
2009-04-22, 03:07:04,VALID,1008.56,VALID,0,VALID,4,VALID,0,VALID,22.7978,VALID,69,VALID,0.0699219,
2009-04-22, 03:08:04,VALID,1008.58,VALID,0,VALID,4,VALID,0,VALID,22.7978,VALID,69,VALID,0,
2009-04-22, 03:09:04,VALID,1008.58,VALID,0,VALID,4,VALID,0,VALID,22.7978,VALID,69,VALID,0.117578,
2009-04-22, 03:10:04,VALID,1008.57,VALID,0,VALID,4,VALID,0,VALID,22.7978,VALID,69,VALID,0,
2009-04-22, 03:11:04,VALID,1008.57,VALID,0,VALID,4,VALID,0,VALID,22.7783,VALID,69,VALID,0,
2009-04-22, 03:12:04,VALID,1008.58,VALID,0,VALID,4,VALID,0,VALID,22.7995,VALID,69,VALID,0,
2009-04-22, 03:13:04,VALID,1008.61,VALID,0,VALID,4,VALID,0,VALID,22.7783,VALID,69,VALID,0,
2009-04-22, 03:14:04,VALID,1008.58,VALID,0,VALID,4,VALID,0.105969,VALID,22.7571,VALID,69,VALID,0,
2009-04-22, 03:15:04,VALID,1008.6,VALID,0,VALID,4,VALID,0.105969,VALID,22.7571,VALID,69,VALID,0,
2009-04-22, 03:16:04,VALID,1008.62,VALID,0,VALID,4,VALID,0.105969,VALID,22.7571,VALID,69,VALID,0,
2009-04-22, 03:17:04,VALID,1008.61,VALID,0,VALID,4,VALID,0.105969,VALID,22.7376,VALID,69,VALID,0,
2009-04-22, 03:18:04,VALID,1008.64,VALID,0,VALID,4,VALID,0.105969,VALID,22.7376,VALID,69,VALID,0,
2009-04-22, 03:19:04,VALID,1008.65,VALID,0,VALID,4,VALID,0.105969,VALID,22.7571,VALID,82,VALID,0.150781,
2009-04-22, 03:20:04,VALID,1008.62,VALID,0,VALID,4,VALID,0.105969,VALID,22.7766,VALID,102,VALID,0.300781,
2009-04-22, 03:21:04,VALID,1008.63,VALID,0,VALID,4,VALID,0,VALID,22.7571,VALID,102,VALID,0,
2009-04-22, 03:22:04,VALID,1008.65,VALID,0,VALID,4,VALID,0.105969,VALID,22.7376,VALID,102,VALID,0,
2009-04-22, 03:23:04,VALID,1008.65,VALID,0,VALID,4,VALID,0.105969,VALID,22.7182,VALID,102,VALID,0,
2009-04-22, 03:24:04,VALID,1008.66,VALID,0,VALID,4,VALID,0.105969,VALID,22.7182,VALID,101,VALID,0,
2009-04-22, 03:25:04,VALID,1008.68,VALID,0,VALID,4,VALID,0.105969,VALID,22.6987,VALID,99,VALID,0,
2009-04-22, 03:26:04,VALID,1008.68,VALID,0,VALID,4,VALID,0.105969,VALID,22.7376,VALID,79,VALID,0,
2009-04-22, 03:27:04,VALID,1008.7,VALID,0,VALID,4,VALID,0.105969,VALID,22.7376,VALID,79,VALID,0,
2009-04-22, 03:28:04,VALID,1008.69,VALID,0,VALID,4,VALID,0.105969,VALID,22.7359,VALID,79,VALID,0,
2009-04-22, 03:29:04,VALID,1008.69,VALID,0,VALID,4,VALID,0,VALID,22.7588,VALID,79,VALID,0,
2009-04-22, 03:30:04,VALID,1008.69,VALID,0,VALID,4,VALID,0,VALID,22.7588,VALID,79,VALID,0,
2009-04-22, 03:31:04,VALID,1008.73,VALID,0,VALID,4,VALID,0,VALID,22.7588,VALID,80,VALID,0,
2009-04-22, 03:32:04,VALID,1008.72,VALID,0,VALID,4,VALID,0,VALID,22.7588,VALID,80,VALID,0,
2009-04-22, 03:33:04,VALID,1008.73,VALID,0,VALID,4,VALID,0,VALID,22.7783,VALID,81,VALID,0,
2009-04-22, 03:34:04,VALID,1008.75,VALID,0,VALID,4,VALID,0,VALID,22.7588,VALID,86,VALID,0,
2009-04-22, 03:35:04,VALID,1008.76,VALID,0,VALID,4,VALID,0,VALID,22.7588,VALID,87,VALID,0,
2009-04-22, 03:36:04,VALID,1008.78,VALID,0,VALID,4,VALID,0,VALID,22.7588,VALID,87,VALID,0,
2009-04-22, 03:37:04,VALID,1008.79,VALID,0,VALID,4,VALID,0,VALID,22.7588,VALID,65,VALID,0.580469,
2009-04-22, 03:38:04,VALID,1008.81,VALID,0,VALID,4,VALID,0,VALID,22.7588,VALID,64,VALID,0.460156,
2009-04-22, 03:39:04,VALID,1008.79,VALID,0,VALID,4,VALID,0,VALID,22.7394,VALID,63,VALID,0.2,
2009-04-22, 03:40:04,VALID,1008.8,VALID,0,VALID,4,VALID,0,VALID,22.7588,VALID,50,VALID,0.285547,
2009-04-22, 03:41:04,VALID,1008.83,VALID,0,VALID,4,VALID,0,VALID,22.7394,VALID,59,VALID,0.591016,
2009-04-22, 03:42:04,VALID,1008.83,VALID,0,VALID,4,VALID,0,VALID,22.7588,VALID,37,VALID,0.485547,
2009-04-22, 03:43:04,VALID,1008.85,VALID,0,VALID,4,VALID,0,VALID,22.7394,VALID,37,VALID,0.283594,
2009-04-22, 03:44:04,VALID,1008.83,VALID,0,VALID,4,VALID,0,VALID,22.7199,VALID,46,VALID,0.542188,
2009-04-22, 03:45:04,VALID,1008.83,VALID,0,VALID,4,VALID,0,VALID,22.7199,VALID,50,VALID,0.519922,
2009-04-22, 03:46:04,VALID,1008.85,VALID,0,VALID,4,VALID,0,VALID,22.7199,VALID,56,VALID,0.512109,
2009-04-22, 03:47:04,VALID,1008.84,VALID,0,VALID,4,VALID,0,VALID,22.6792,VALID,61,VALID,0.527734,
2009-04-22, 03:48:04,VALID,1008.85,VALID,0,VALID,4,VALID,0,VALID,22.6809,VALID,49,VALID,0.507422,
2009-04-22, 03:49:04,VALID,1008.83,VALID,0,VALID,4,VALID,0,VALID,22.6809,VALID,56,VALID,0.373047,
2009-04-22, 03:50:04,VALID,1008.82,VALID,0,VALID,4,VALID,0,VALID,22.6614,VALID,77,VALID,0.484766,
2009-04-22, 03:51:04,VALID,1008.82,VALID,0,VALID,4,VALID,0,VALID,22.6809,VALID,65,VALID,1.01563,
2009-04-22, 03:52:04,VALID,1008.86,VALID,0,VALID,4,VALID,0,VALID,22.7004,VALID,77,VALID,0.707422,
2009-04-22, 03:53:04,VALID,1008.85,VALID,0,VALID,4,VALID,0,VALID,22.6809,VALID,62,VALID,0.370313,
2009-04-22, 03:54:04,VALID,1008.88,VALID,0,VALID,4,VALID,0,VALID,22.6809,VALID,62,VALID,0.530859,
2009-04-22, 03:55:04,VALID,1008.88,VALID,0,VALID,4,VALID,0,VALID,22.6809,VALID,45,VALID,0.706641,
2009-04-22, 03:56:04,VALID,1008.88,VALID,0,VALID,4,VALID,0,VALID,22.6614,VALID,63,VALID,0.443359,
2009-04-22, 03:57:04,VALID,1008.91,VALID,0,VALID,4,VALID,0,VALID,22.6614,VALID,80,VALID,0.2875,